Location: Monrovia
(34.7865°N, 86.7139°W)
Time: 00:13:20
(UTC+00:00)

Cosmos 2278 - Pass Details

Date: 14 July 2020
Orbit: 838 x 854 km, 71.1° (Epoch: 12 August)

Event Time Altitude Azimuth Distance (km) Brightness Sun altitude
Rises 08:51:21 0° 336° (NNW) 3,428 7.2 -19.5°
Reaches altitude 10° 08:53:49 10° 334° (NNW) 2,488 6.4 -19.1°
Maximum altitude 08:59:30 70° 252° (WSW) 906 3.6 -18.3°
Drops below altitude 10° 09:05:08 10° 169° (S) 2,470 5.8 -17.5°
Enters shadow 09:06:06 - 168° (SSE) 2,837 6.1 -17.3°
